Regional Weather Roundup
Issued by NWS Kansas City/Pleasant Hill, MO

Home | Current Version | Previous Version | Graphics & Text | Print | Product List | Glossary Off
Versions: 1 2 3 4 5 6 7 8 9 10 11 12 13 14 15 16 17 18 19 20 21 22 23 24 25 26 27 28 29 30 31 32 33 34 35 36 37 38 39 40 41 42 43 44 45 46 47 48 49 50

000
ASUS43 KEAX 040310
RWREAX

WEATHER ROUNDUP FOR EASTERN KANSAS AND NORTHWEST MISSOURI
NATIONAL WEATHER SERVICE KANSAS CITY/PLEASANT HILL MO
900 PM CST SAT DEC 03 2016

KSZ040-057-103>105-MOZ028-029-037-043-040400-
...KANSAS CITY METROPOLITAN AREA...

CITY           SKY/WX    TMP DP  RH WIND       PRES   REMARKS
K.C. INTL      LGT RAIN  44  31  60 SE8       30.11F
K.C. DOWNTOWN  CLOUDY    48  32  53 S8        30.12S
LEES SUMMIT    CLOUDY    45  33  63 SE8       30.13S
OLATHE - IXD   CLOUDY    45  34  65 SE9       30.12S
OLATHE - OJC   CLOUDY    44  33  65 SE9       30.11F
LAWRENCE       LGT RAIN  42  37  82 CALM      30.11F

$$

MOZ001>008-011>017-020>025-030>033-038>040-044>046-053-054-040400-
...NORTHERN AND CENTRAL MISSOURI...

CITY           SKY/WX    TMP DP  RH WIND       PRES   REMARKS
ST. JOSEPH     LGT RAIN  41  35  79 SE3       30.12F
MOSBY          CLOUDY    45  32  61 SE6       30.12F
WARRENSBURG    DRIZZLE   43  34  70 SE7       30.15S
WHITEMAN AFB   CLOUDY    43  35  72 S6        30.14S
CLINTON        LGT RAIN  43  36  75 SE5       30.17R
SEDALIA        CLOUDY    44  32  62 SE9       30.17R
WARSAW         NOT AVBL
CHILLICOTHE      N/A     43  33  68 SE8       30.16F
KIRKSVILLE     MOCLDY    39  33  79 SE13      30.17F WCI  31

$$

MOZ041-047>049-056>058-063>065-088>090-097-040400-
...EASTERN AND SOUTHERN MISSOURI...

CITY           SKY/WX    TMP DP  RH WIND       PRES   REMARKS
ST. LOUIS INTL CLOUDY    42  32  67 E8        30.24F
SPIRIT OF STL  CLOUDY    42  33  70 SE5       30.24S
COLUMBIA       CLOUDY    41  32  70 SE12      30.19R WCI  34
JEFFERSON CITY CLOUDY    43  31  62 E7        30.21R
ROLLA          CLOUDY    41  31  67 SE10      30.18S WCI  35
OSAGE BEACH    LGT RAIN  42  32  67 SE6       30.19S
SPRINGFIELD    LGT RAIN  40  35  83 E12       30.12S WCI  33
BRANSON        CLOUDY    37  37 100 SE14G20   30.11F FOG     WCI  29
JOPLIN         CLOUDY    41  38  89 E6        30.11F
WEST PLAINS    CLOUDY    37  36  96 E7        30.17F FOG     WCI  32

$$

IAZ060-094-KSZ022-034>040-054-083-096-NEZ052-066-093-040400-
...KANSAS...SOUTHEAST NEBRASKA AND IOWA...

CITY           SKY/WX    TMP DP  RH WIND       PRES   REMARKS
TOPEKA         LGT RAIN  42  37  82 NW6       30.11F
MANHATTAN      LGT RAIN  40  39  97 CALM      30.09F FOG
EMPORIA        CLOUDY    41  38  89 CALM      30.09F
CHANUTE        LGT RAIN  44  40  85 E7        30.11S
WICHITA        LGT RAIN  41  41 100 E3        30.07F FOG
OMAHA          LGT SNOW  33  29  85 SE5       30.10F FOG     WCI  29
LINCOLN        LGT SNOW  33  32  96 CALM      30.09F FOG
FALLS CITY     LGT RAIN  38  36  92 SE6       30.09F WCI  33
LAMONI         CLOUDY    40  33  76 SE9       30.13F WCI  34
DES MOINES     LGT RAIN  37  33  85 SE9       30.15F WCI  30

$$




USA.gov is the U.S. government's official web portal to all federal, state and local government web resources and services.